When you browse on this site, cookies collect data to enhance your experience and personalize the content and advertising you see.
Visit our Privacy Policy to learn more. By continuing to use the site, you agree to this use of cookies and data.
  • In Netherlands
  • List of Countries
  • For 7 days
  • Water Temperature
  • Weather Map
  • Weather Widgets
  • user-avatar
    Login

    Hourly Weather Suhoplachevo

    Today, 26 May, Tuesday

    Time Temperature Precipitation Wind Pressure Humidity
    00:00 +7°C° 0 mm 0 mps 751 mmHg 88%
    01:00 +7°C° 0 mm 0 mps 751 mmHg 88%
    02:00 +6°C° 0 mm 0 mps 751 mmHg 88%
    03:00 +7°C° 0 mm 0 mps 752 mmHg 87%
    04:00 +8°C° 0 mm 0 mps 752 mmHg 85%
    05:00 +9°C° 0 mm 0 mps 752 mmHg 84%
    06:00 +11°C° 0 mm 0 mps 752 mmHg 77%
    07:00 +14°C° 0 mm 1 mps 752 mmHg 71%
    08:00 +16°C° 0 mm 1 mps 753 mmHg 64%
    09:00 +18°C° 0 mm 1 mps 753 mmHg 58%
    10:00 +19°C° 0 mm 1 mps 752 mmHg 51%
    11:00 +20°C° 0 mm 1 mps 752 mmHg 45%
    12:00 +20°C° 0 mm 1 mps 752 mmHg 45%
    13:00 +20°C° 0 mm 1 mps 752 mmHg 44%
    14:00 +20°C° 0 mm 1 mps 752 mmHg 45%
    15:00 +20°C° 0 mm 1 mps 752 mmHg 51%
    16:00 +19°C° 0 mm 1 mps 751 mmHg 57%
    17:00 +19°C° 0 mm 1 mps 751 mmHg 63%
    18:00 +16°C° 0.1 mm 1 mps 751 mmHg 68%
    19:00 +14°C° 0.1 mm 1 mps 751 mmHg 73%
    20:00 +12°C° 0.1 mm 1 mps 751 mmHg 77%
    21:00 +12°C° 0 mm 1 mps 751 mmHg 79%
    22:00 +10°C° 0 mm 0 mps 751 mmHg 81%
    23:00 +9°C° 0 mm 0 mps 750 mmHg 83%

    Tomorrow, 27 May, Wednesday

    Time Temperature Precipitation Wind Pressure Humidity
    00:00 +9°C° 0 mm 0 mps 750 mmHg 83%
    01:00 +10°C° 0 mm 1 mps 750 mmHg 84%
    02:00 +10°C° 0 mm 1 mps 750 mmHg 84%
    03:00 +10°C° 0 mm 1 mps 750 mmHg 84%
    04:00 +11°C° 0 mm 1 mps 749 mmHg 84%
    05:00 +10°C° 0 mm 0 mps 749 mmHg 84%
    06:00 +12°C° 0 mm 0 mps 749 mmHg 78%
    07:00 +13°C° 0 mm 0 mps 750 mmHg 72%
    08:00 +15°C° 0 mm 0 mps 750 mmHg 67%
    09:00 +16°C° 0.2 mm 0 mps 749 mmHg 63%
    10:00 +19°C° 0.2 mm 1 mps 749 mmHg 60%
    11:00 +20°C° 0.2 mm 1 mps 749 mmHg 56%
    12:00 +20°C° 0.1 mm 1 mps 749 mmHg 55%
    13:00 +20°C° 0.1 mm 1 mps 748 mmHg 53%
    14:00 +20°C° 0.1 mm 1 mps 748 mmHg 52%
    15:00 +19°C° 0.1 mm 1 mps 748 mmHg 55%
    16:00 +19°C° 0.1 mm 1 mps 748 mmHg 59%
    17:00 +19°C° 0.1 mm 1 mps 748 mmHg 63%
    18:00 +16°C° 0.1 mm 1 mps 748 mmHg 69%
    19:00 +14°C° 0.1 mm 1 mps 748 mmHg 74%
    20:00 +13°C° 0.1 mm 1 mps 748 mmHg 80%
    21:00 +12°C° 0 mm 1 mps 747 mmHg 81%
    22:00 +12°C° 0 mm 1 mps 747 mmHg 83%
    23:00 +11°C° 0 mm 1 mps 747 mmHg 84%

    Day after tomorrow, 28 May, Thursday

    Time Temperature Precipitation Wind Pressure Humidity
    00:00 +11°C° 0 mm 1 mps 747 mmHg 86%
    01:00 +10°C° 0 mm 1 mps 747 mmHg 87%
    02:00 +10°C° 0 mm 1 mps 747 mmHg 89%
    03:00 +10°C° 0 mm 1 mps 747 mmHg 88%
    04:00 +11°C° 0 mm 1 mps 747 mmHg 88%
    05:00 +11°C° 0 mm 1 mps 747 mmHg 87%
    06:00 +13°C° 0 mm 1 mps 747 mmHg 81%
    07:00 +14°C° 0 mm 1 mps 747 mmHg 74%
    08:00 +16°C° 0 mm 1 mps 747 mmHg 67%
    09:00 +18°C° 0.1 mm 1 mps 747 mmHg 62%
    10:00 +18°C° 0.1 mm 2 mps 747 mmHg 56%
    11:00 +19°C° 0.1 mm 2 mps 747 mmHg 51%
    12:00 +20°C° 0.1 mm 2 mps 747 mmHg 50%
    13:00 +20°C° 0.1 mm 2 mps 746 mmHg 50%
    14:00 +20°C° 0.1 mm 2 mps 746 mmHg 49%
    15:00 +20°C° 0.2 mm 2 mps 746 mmHg 54%
    16:00 +20°C° 0.2 mm 1 mps 746 mmHg 58%
    17:00 +20°C° 0.2 mm 1 mps 746 mmHg 63%
    18:00 +18°C° 0 mm 1 mps 746 mmHg 68%
    19:00 +16°C° 0 mm 1 mps 746 mmHg 74%
    20:00 +14°C° 0 mm 1 mps 746 mmHg 80%
    21:00 +14°C° 0 mm 1 mps 746 mmHg 82%
    22:00 +13°C° 0 mm 1 mps 746 mmHg 84%
    23:00 +13°C° 0 mm 1 mps 746 mmHg 87%

    29 May, Friday

    Time Temperature Precipitation Wind Pressure Humidity
    00:00 +12°C° 0 mm 1 mps 745 mmHg 89%
    01:00 +12°C° 0 mm 1 mps 745 mmHg 91%
    02:00 +11°C° 0 mm 1 mps 745 mmHg 93%
    03:00 +12°C° 0.2 mm 1 mps 744 mmHg 94%
    04:00 +12°C° 0.2 mm 2 mps 744 mmHg 94%
    05:00 +12°C° 0.2 mm 2 mps 744 mmHg 94%
    06:00 +11°C° 0.1 mm 3 mps 743 mmHg 94%
    07:00 +12°C° 0.1 mm 3 mps 743 mmHg 93%
    08:00 +12°C° 0.1 mm 3 mps 743 mmHg 93%
    09:00 +12°C° 1.4 mm 4 mps 742 mmHg 94%
    10:00 +12°C° 1.4 mm 4 mps 742 mmHg 95%
    11:00 +12°C° 1.4 mm 4 mps 742 mmHg 96%
    12:00 +12°C° 1.2 mm 4 mps 742 mmHg 96%
    13:00 +13°C° 1.2 mm 4 mps 741 mmHg 96%
    14:00 +13°C° 1.2 mm 4 mps 741 mmHg 95%
    15:00 +13°C° 0.1 mm 4 mps 741 mmHg 95%
    16:00 +14°C° 0.1 mm 4 mps 741 mmHg 95%
    17:00 +14°C° 0.1 mm 4 mps 741 mmHg 95%
    18:00 +14°C° 0.2 mm 4 mps 740 mmHg 95%
    19:00 +14°C° 0.2 mm 4 mps 740 mmHg 96%
    20:00 +13°C° 0.2 mm 4 mps 740 mmHg 97%
    21:00 +13°C° 0.3 mm 4 mps 740 mmHg 97%
    22:00 +13°C° 0.3 mm 4 mps 740 mmHg 97%
    23:00 +13°C° 0.3 mm 4 mps 740 mmHg 97%

    30 May, Saturday

    Time Temperature Precipitation Wind Pressure Humidity
    00:00 +14°C° 0.5 mm 4 mps 740 mmHg 97%
    01:00 +14°C° 0.5 mm 4 mps 740 mmHg 97%
    02:00 +14°C° 0.5 mm 4 mps 740 mmHg 97%
    03:00 +14°C° 0.3 mm 4 mps 740 mmHg 97%
    04:00 +14°C° 0.3 mm 4 mps 740 mmHg 97%
    05:00 +15°C° 0.3 mm 4 mps 740 mmHg 97%
    06:00 +15°C° 0.2 mm 4 mps 740 mmHg 97%
    07:00 +15°C° 0.2 mm 4 mps 740 mmHg 97%
    08:00 +15°C° 0.2 mm 4 mps 740 mmHg 97%
    09:00 +15°C° 0.3 mm 5 mps 741 mmHg 96%
    10:00 +15°C° 0.3 mm 5 mps 741 mmHg 96%
    11:00 +15°C° 0.3 mm 5 mps 741 mmHg 96%
    12:00 +15°C° 0.1 mm 5 mps 741 mmHg 95%
    13:00 +15°C° 0.1 mm 5 mps 741 mmHg 95%
    14:00 +15°C° 0.1 mm 6 mps 741 mmHg 94%
    15:00 +15°C° 0 mm 6 mps 741 mmHg 93%
    16:00 +15°C° 0 mm 6 mps 741 mmHg 92%
    17:00 +15°C° 0 mm 6 mps 741 mmHg 91%
    18:00 +15°C° 0 mm 6 mps 741 mmHg 89%
    19:00 +15°C° 0 mm 6 mps 741 mmHg 87%
    20:00 +15°C° 0 mm 6 mps 741 mmHg 85%
    21:00 +15°C° 0 mm 6 mps 741 mmHg 84%
    22:00 +15°C° 0 mm 7 mps 741 mmHg 83%
    23:00 +15°C° 0 mm 7 mps 742 mmHg 82%

    31 May, Sunday

    Time Temperature Precipitation Wind Pressure Humidity
    00:00 +14°C° 0 mm 7 mps 742 mmHg 82%
    01:00 +12°C° 0 mm 7 mps 742 mmHg 81%
    02:00 +12°C° 0 mm 7 mps 741 mmHg 81%
    03:00 +11°C° 0 mm 7 mps 742 mmHg 80%
    04:00 +11°C° 0 mm 7 mps 742 mmHg 79%
    05:00 +10°C° 0 mm 7 mps 742 mmHg 79%
    06:00 +11°C° 0 mm 8 mps 742 mmHg 73%
    07:00 +12°C° 0 mm 8 mps 742 mmHg 67%
    08:00 +13°C° 0 mm 8 mps 743 mmHg 61%
    09:00 +15°C° 0 mm 8 mps 743 mmHg 57%
    10:00 +16°C° 0 mm 8 mps 743 mmHg 53%
    11:00 +17°C° 0 mm 8 mps 743 mmHg 49%
    12:00 +17°C° 0 mm 8 mps 743 mmHg 49%
    13:00 +17°C° 0 mm 8 mps 743 mmHg 49%
    14:00 +18°C° 0 mm 8 mps 743 mmHg 49%
    15:00 +17°C° 0 mm 7 mps 743 mmHg 51%
    16:00 +17°C° 0 mm 7 mps 744 mmHg 54%
    17:00 +16°C° 0 mm 6 mps 744 mmHg 56%
    18:00 +15°C° 0 mm 5 mps 744 mmHg 61%
    19:00 +13°C° 0 mm 5 mps 745 mmHg 66%
    20:00 +12°C° 0 mm 4 mps 745 mmHg 71%
    21:00 +11°C° 0 mm 4 mps 746 mmHg 72%
    22:00 +10°C° 0 mm 4 mps 746 mmHg 72%
    23:00 +10°C° 0 mm 4 mps 746 mmHg 73%
    Show more